Morristown, NJ

5:52 PM EDT on March 25, 2017 (GMT -0400)
Morristown Municipal

Weather History for KMMU - April, 2014

Change the Weather History Date:

Friday, April 11, 2014

  Actual Average Record
Temperature  
Mean Temperature 58 °F -  
Max Temperature 73 °F 59 °F 84 °F (2011)
Min Temperature 44 °F 34 °F 18 °F (1938)
Degree Days  
Heating Degree Days 6    
Growing Degree Days 8 (Base 50)    
Moisture  
Dew Point 40 °F    
Average Humidity 57    
Maximum Humidity 82    
Minimum Humidity 29    
Precipitation  
Precipitation 0.00 in - - ()
Sea Level Pressure  
Sea Level Pressure 29.99 in    
Wind  
Wind Speed 4 mph (West)    
Max Wind Speed 21 mph    
Max Gust Speed 30 mph    
Visibility 10 miles    
Events Rain    
Averages and records for this station are not official NWS values.
T = Trace of Precipitation, MM = Missing Value Source: NWS Daily Summary

Daily Weather History Graph

Daily Weather History Graph

Search for Another Location

Airport or City:

Trip Planner

Search our weather history database for the weather conditions in past years. The results will help you decide how hot, cold, wet, or windy it might be!

Date:

Astronomy

Apr. 11, 2014 Rise Set
Actual Time 6:25 AM EDT 7:32 PM EDT
Civil Twilight 5:56 AM EDT 8:01 PM EDT
Nautical Twilight 5:23 AM EDT 8:34 PM EDT
Astronomical Twilight 4:48 AM EDT 9:10 PM EDT
Moon 4:09 PM EDT (4/11) 4:20 AM EDT (4/11)
Length of Visible Light 14h 04m
Length of Day
13h 07m
Waxing Gibbous, 87% of the Moon is Illuminated
Apr 11
Waxing Gibbous
Apr 15
Full
Apr 22
Last Quarter
Apr 29
New
May 6
First Quarter

Hourly Weather History & Observations

Time (EDT) Temp. Windchill Dew Point Humidity Pressure Visibility Wind Dir Wind Speed Gust Speed Precip Events Conditions
12:15 AM 57.2 °F - 30.2 °F 36% 30.03 in 10.0 mi SSW 6.9 mph - N/A   Clear
12:35 AM 57.2 °F - 30.2 °F 36% 30.02 in 10.0 mi SSW 5.8 mph - N/A   Clear
12:55 AM 55.4 °F - 30.2 °F 38% 30.01 in 10.0 mi SSW 5.8 mph - N/A   Clear
1:15 AM 55.4 °F - 30.2 °F 38% 30.01 in 10.0 mi Calm Calm - N/A   Clear
1:35 AM 55.4 °F - 30.2 °F 38% 30.00 in 10.0 mi Calm Calm - N/A   Clear
1:55 AM 53.6 °F - 30.2 °F 41% 29.99 in 10.0 mi South 3.5 mph - N/A   Clear
2:15 AM 53.6 °F - 30.2 °F 41% 29.98 in 10.0 mi Calm Calm - N/A   Clear
2:35 AM 51.8 °F - 30.2 °F 44% 29.97 in 10.0 mi Calm Calm - N/A   Clear
2:55 AM 51.8 °F - 30.2 °F 44% 29.97 in 10.0 mi Calm Calm - N/A   Clear
3:15 AM 48.2 °F - 35.6 °F 62% 29.97 in 10.0 mi Calm Calm - N/A   Clear
3:35 AM 48.2 °F - 37.4 °F 66% 29.97 in 10.0 mi Calm Calm - N/A   Clear
3:55 AM 48.2 °F - 33.8 °F 58% 29.96 in 10.0 mi Calm Calm - N/A   Clear
4:15 AM 46.4 °F - 37.4 °F 71% 29.96 in 10.0 mi Calm Calm - N/A   Clear
4:35 AM 46.4 °F - 33.8 °F 62% 29.95 in 10.0 mi Calm Calm - N/A   Clear
4:55 AM 44.6 °F - 35.6 °F 71% 29.96 in 10.0 mi Calm Calm - N/A   Mostly Cloudy
5:15 AM 44.6 °F - 35.6 °F 71% 29.96 in 10.0 mi Calm Calm - N/A   Mostly Cloudy
5:35 AM 46.4 °F - 35.6 °F 66% 29.97 in 10.0 mi Calm Calm - N/A   Scattered Clouds
5:55 AM 46.4 °F - 39.2 °F 76% 29.98 in 10.0 mi Calm Calm - N/A   Clear
6:15 AM 46.4 °F - 37.4 °F 71% 29.98 in 10.0 mi Calm Calm - N/A   Clear
6:35 AM 46.4 °F 45.2 °F 39.2 °F 76% 29.98 in 10.0 mi South 3.5 mph - N/A   Scattered Clouds
7:45 AM 51.8 °F - 39.2 °F 62% 30.02 in 10.0 mi West 3.5 mph - N/A   Overcast
8:45 AM 57.2 °F - 39.2 °F 51% 30.03 in 10.0 mi SW 6.9 mph - N/A   Scattered Clouds
9:45 AM 60.8 °F - 37.4 °F 42% 30.02 in 10.0 mi SW 6.9 mph - N/A   Mostly Cloudy
10:45 AM 66.2 °F - 39.2 °F 37% 30.03 in 10.0 mi WSW 10.4 mph - N/A   Overcast
11:45 AM 66.2 °F - 41.0 °F 40% 30.03 in 10.0 mi WSW 9.2 mph - N/A   Overcast
12:45 PM 69.8 °F - 42.8 °F 38% 29.99 in 10.0 mi WSW 12.7 mph - N/A   Mostly Cloudy
1:45 PM 73.4 °F - 44.6 °F 36% 29.96 in 10.0 mi NW 12.7 mph - N/A   Scattered Clouds
2:45 PM 73.4 °F - 42.8 °F 33% 29.94 in 10.0 mi West 11.5 mph 17.3 mph N/A   Scattered Clouds
3:45 PM 73.4 °F - 39.2 °F 29% 29.94 in 10.0 mi West 13.8 mph 18.4 mph N/A   Overcast
4:45 PM 69.8 °F - 46.4 °F 43% 29.96 in 10.0 mi NNW 16.1 mph 23.0 mph N/A   Scattered Clouds
5:45 PM 66.2 °F - 46.4 °F 49% 29.97 in 10.0 mi NW 20.7 mph 29.9 mph N/A   Mostly Cloudy
6:45 PM 62.6 °F - 50.0 °F 63% 29.98 in 10.0 mi West 11.5 mph 18.4 mph N/A   Mostly Cloudy
7:45 PM 60.8 °F - 50.0 °F 68% 29.99 in 10.0 mi NW 5.8 mph - N/A   Mostly Cloudy
8:45 PM 60.8 °F - 50.0 °F 68% 30.01 in 10.0 mi North 8.1 mph - N/A   Overcast
9:45 PM 57.2 °F - 50.0 °F 77% 30.03 in 10.0 mi North 4.6 mph - N/A   Overcast
10:15 PM 59.0 °F - 51.8 °F 77% 30.02 in 10.0 mi Calm Calm - N/A Rain Light Rain
10:35 PM 57.2 °F - 51.8 °F 82% 30.03 in 10.0 mi Calm Calm - N/A   Overcast
10:55 PM 57.2 °F - 51.8 °F 82% 30.02 in 10.0 mi Calm Calm - N/A   Overcast
11:15 PM 57.2 °F - 51.8 °F 82% 30.01 in 10.0 mi Calm Calm - N/A Rain Light Rain
11:35 PM 57.2 °F - 51.8 °F 82% 30.01 in 10.0 mi NNW 3.5 mph - N/A   Overcast
11:55 PM 57.2 °F - 50.0 °F 77% 30.02 in 10.0 mi Calm Calm - N/A   Mostly Cloudy